SB KEPS @ AMSAT $ORB24348.1
2Line Orbital Elements 24348.AMSAT
QST de W1STR
AMSAT Orbital Elements for Amateur Satellites in TLE Format
From Orbital Analysis Office
New England Sci-Tech STEM Education Center
Natick, MA December 13, 2024
To all radio amateurs
These element sets describe the orbits of various satellites
in use by the amateur radio community. For details see:
www.amsat.org/keplerian-elements-formats/
A daily update of element sets is available at:
www.amsat.org/tle/daily-bulletin.txt
or without bulletin text:
www.amsat.org/tle/dailytle.txt
AO-07
1 07530U 74089B 24347.24782823 -.00000011 00000-0 21854-3 0 9995
2 07530 101.9898 343.6369 0012391 104.1447 267.4351 12.53683731291351
UO-11
1 14781U 84021B 24347.49648848 .00002369 00000-0 26231-3 0 9994
2 14781 97.7298 311.8288 0007087 197.0191 163.0789 14.88236831174994
AO-27
1 22825U 93061C 24347.60798853 .00000259 00000-0 11658-3 0 9994
2 22825 98.7653 42.0399 0007338 278.0174 82.0176 14.30679136628398
FO-29
1 24278U 96046B 24347.31036305 .00000034 00000-0 68081-4 0 9993
2 24278 98.5879 258.6482 0350966 86.9429 277.1804 13.53225016398527
NOAA-15
1 25338U 98030A 24347.72091176 .00000345 00000-0 15988-3 0 9990
2 25338 98.5533 11.0092 0010669 157.3664 202.7989 14.26823713382897
GO-32
1 25397U 98043D 24347.41162688 .00000228 00000-0 11885-3 0 9994
2 25397 98.9479 317.0343 0001797 41.1643 318.9671 14.24210057372786
ISS
1 25544U 98067A 24347.68930978 .00019283 00000-0 33842-3 0 9996
2 25544 51.6399 151.0098 0007262 333.4429 132.8004 15.50528401486236
NO-44
1 26931U 01043C 24347.38405214 .00000405 00000-0 18312-3 0 9993
2 26931 67.0502 231.0891 0006780 260.6649 99.3686 14.31538076211453
SO-50
1 27607U 02058C 24347.55821869 .00002202 00000-0 30255-3 0 9995
2 27607 64.5558 32.6862 0034760 23.3637 336.9037 14.80493868182922
CO-55
1 27844U 03031E 24347.48837557 .00000798 00000-0 36885-3 0 9996
2 27844 98.6777 352.0963 0009559 354.0393 6.0670 14.23697248113150
CO-57
1 27848U 03031J 24347.28521309 .00000671 00000-0 31675-3 0 9995
2 27848 98.6806 352.0312 0009763 11.2702 348.8694 14.23075587112864
RS-22
1 27939U 03042A 24347.74806895 .00002328 00000-0 38442-3 0 9995
2 27939 98.3073 147.1903 0011051 211.8397 204.9336 14.71364053134522
NOAA-18
1 28654U 05018A 24347.75110008 .00000349 00000-0 20919-3 0 9991
2 28654 98.8612 63.1288 0013242 277.0181 82.9486 14.13450466 8488
CO-58
1 28895U 05043F 24347.34307104 .00003542 00000-0 60323-3 0 9997
2 28895 98.2234 123.9242 0015555 151.6710 208.5344 14.69613694 20600
CO-65
1 32785U 08021C 24347.89383184 .00006983 00000-0 55236-3 0 9990
2 32785 97.7700 312.4376 0013102 105.2960 254.9713 15.00881154902312
AAUSAT2
1 32788U 08021F 24347.75090452 .00052282 00000-0 14484-2 0 9993
2 32788 97.6041 330.7582 0001065 79.3135 280.8228 15.36790459905648
CO-66
1 32791U 08021J 24346.87527403 .00016664 00000-0 99346-3 0 9995
2 32791 97.7101 318.1123 0007305 70.0565 290.1451 15.11222088903280
RS-30
1 32953U 08025A 24347.73777058 .00000042 00000-0 22978-3 0 9998
2 32953 82.5031 338.4276 0020660 76.2387 284.0991 12.43155028751314
PRISM
1 33493U 09002B 24347.61296512 .00059660 00000-0 14754-2 0 9994
2 33493 98.1777 52.7486 0007763 347.0295 13.0748 15.40226135866291
NOAA-19
1 33591U 09005A 24347.72881805 .00000334 00000-0 20225-3 0 9998
2 33591 99.0248 45.2266 0014373 146.0171 214.1924 14.13227311816843
SRMSAT
1 37841U 11058D 24347.81024892 .00000578 00000-0 17085-3 0 9996
2 37841 19.9701 156.2620 0011696 258.8681 228.7789 14.11308657680042
RS-40
1 38735U 12041C 24347.75915717 .00000016 00000-0 41016-4 0 9999
2 38735 82.4772 58.5349 0017658 186.6380 173.4468 12.42621856561441
ZACUBE-1
1 39417U 13066B 24347.82929870 .00008383 00000-0 78924-3 0 9990
2 39417 97.7576 300.4743 0044973 289.6936 69.9434 14.93331266598205
Delfi-N3xt
1 39428U 13066N 24347.47909348 .00009338 00000-0 10541-2 0 9992
2 39428 97.8371 261.6945 0089966 228.0878 131.2640 14.83826751592478
GOMX-1
1 39430U 13066Q 24347.71443579 .00003051 00000-0 49068-3 0 9994
2 39430 97.7044 211.2450 0136960 44.6087 316.6043 14.66139637589181
LO-74
1 39440U 13066AA 24347.80985865 .00006524 00000-0 70609-3 0 9997
2 39440 97.8315 288.1897 0067529 49.8621 310.8484 14.86915409596046
AO-73
1 39444U 13066AE 24347.37880512 .00010642 00000-0 90116-3 0 9997
2 39444 97.7431 303.7603 0040693 267.4467 92.2096 14.97537623596721
DTUSAT-2
1 40030U 14033W 24347.37700593 .00010811 00000-0 79371-3 0 9993
2 40030 98.0327 305.4030 0009151 314.1938 45.8534 15.03622770569426
EO-80
1 40032U 14033Y 24347.60635617 .00009301 00000-0 68250-3 0 9991
2 40032 98.0230 305.5374 0006646 237.8926 122.1654 15.03702032569430
XW-2C
1 40906U 15049H 24347.72912224 .00120246 00000-0 96834-3 0 9995
2 40906 97.4552 11.8666 0005125 37.3747 322.7871 15.70535890512185
LILACSAT-2
1 40908U 15049K 24347.77183641 .00012798 00000-0 40748-3 0 9990
2 40908 97.5188 358.4875 0012958 80.8045 279.4662 15.32626452510784
IO-86
1 40931U 15052B 24337.09180034 .00002217 00000-0 20975-3 0 9992
2 40931 5.9986 232.5457 0013173 302.5393 57.3463 14.78392648496340
ChubuSat-2
1 41338U 16012B 24347.35251635 .00008640 00000-0 48079-3 0 9998
2 41338 31.0014 320.9443 0011052 230.1270 129.8397 15.12272306484553
ChubuSat-3
1 41339U 16012C 24347.32142706 .00007889 00000-0 45142-3 0 9996
2 41339 31.0080 321.0857 0011134 231.6849 128.2788 15.11240394484421
Horyu-4
1 41340U 16012D 24347.76544853 .00020970 00000-0 79206-3 0 9999
2 41340 31.0002 244.5096 0008997 354.0503 6.0031 15.25770247485358
Lapan A3
1 41603U 16040E 24347.75389471 .00004550 00000-0 17045-3 0 9993
2 41603 97.1386 353.6370 0011354 177.2246 182.9059 15.27697208470462
Pratham
1 41783U 16059A 24347.49602948 .00001498 00000-0 28117-3 0 9990
2 41783 97.8290 358.4927 0032148 172.0142 188.1581 14.65764605438655
CAS-2T
1 41847U 16066G 24347.30712326 .00001857 00000-0 27549-3 0 9998
2 41847 98.4435 57.2575 0349526 0.5972 359.5567 14.42533483425167
CAS-4B
1 42759U 17034B 24347.74934615 .00035613 00000-0 83582-3 0 9998
2 42759 43.0143 288.8918 0013420 132.8465 227.3521 15.41324983414828
CAS-4A
1 42761U 17034D 24347.79479478 .00035079 00000-0 81477-3 0 9994
2 42761 43.0178 286.7645 0014463 141.5515 218.6375 15.41628135414842
D-SAT
1 42794U 17036AF 24347.76109559 .00010190 00000-0 63233-3 0 9996
2 42794 97.4951 323.7515 0099255 260.4142 98.5859 15.05818361407573
TechnoSat
1 42829U 17042E 24347.48078961 .00005308 00000-0 43720-3 0 9997
2 42829 97.3845 158.9723 0012417 189.1873 170.9126 14.99409779403866
AO-91
1 43017U 17073E 24347.62953177 .00010752 00000-0 59525-3 0 9997
2 43017 97.5481 217.2046 0193324 54.2789 307.6249 14.99383406382348
S-Net D
1 43186U 18014G 24347.21652933 .00008788 00000-0 56676-3 0 9991
2 43186 97.5762 246.1911 0011182 113.6760 246.5643 15.08482963375305
S-Net B
1 43187U 18014H 24347.28630061 .00008489 00000-0 54770-3 0 9998
2 43187 97.5767 246.2215 0012051 110.2429 250.0097 15.08469036375310
S-Net A
1 43188U 18014J 24347.28377347 .00008624 00000-0 55606-3 0 9994
2 43188 97.5775 246.3478 0011913 110.9530 249.2974 15.08486704375313
S-Net C
1 43189U 18014K 24347.28834627 .00008279 00000-0 53403-3 0 9993
2 43189 97.5789 246.3351 0013709 104.8227 255.4521 15.08466064373861
Ten-Koh
1 43677U 18084G 24347.38503869 .00005205 00000-0 43840-3 0 9994
2 43677 98.0777 146.7200 0014203 144.8723 215.3438 14.98600932333384
PO-101
1 43678U 18084H 24347.72680864 .00002839 00000-0 25309-3 0 9994
2 43678 98.0858 151.3725 0009228 154.9498 205.2172 14.96834205333610
QO-100
1 43700U 18090A 24347.52788622 .00000159 00000-0 00000-0 0 9997
2 43700 0.0177 320.8849 0002398 338.8209 357.8466 1.00271233 22147
MinXSS-2
1 43758U 18099A 24347.12599081 .00018854 00000-0 94980-3 0 9998
2 43758 97.5319 47.4351 0014986 66.5064 293.7742 15.17126701329685
AO-95
1 43770U 18099N 24347.15419615 .00012445 00000-0 73201-3 0 9992
2 43770 97.5227 41.6283 0013451 111.1821 249.0848 15.11720454329399
RANGE-B
1 43772U 18099Q 24347.63431795 .00019733 00000-0 92865-3 0 9994
2 43772 97.5019 46.6099 0004444 20.7090 339.4324 15.19579529329728
RANGE-A
1 43773U 18099R 24347.60622507 .00006449 00000-0 44496-3 0 9992
2 43773 97.4789 35.2724 0013770 86.2852 273.9950 15.06049442329253
MOVE-II
1 43780U 18099Y 24347.41324306 .00051712 00000-0 16066-2 0 9999
2 43780 97.4967 50.3892 0005044 75.2649 284.9152 15.33167331330054
SNUSat 2
1 43782U 18099AA 24347.37875309 .00010868 00000-0 67119-3 0 9993
2 43782 97.4903 39.9393 0014287 55.7397 304.5183 15.09970938329416
SnugLite
1 43784U 18099AC 24347.15367581 .00012811 00000-0 74923-3 0 9990
2 43784 97.4722 39.0370 0005183 67.6929 292.4850 15.11983715329473
ITASat 1
1 43786U 18099AE 24347.08893030 .00009353 00000-0 59486-3 0 9991
2 43786 97.4878 39.6140 0017128 103.6027 256.7111 15.08898037329358
EAGLET 1
1 43790U 18099AJ 24347.43283324 .00007404 00000-0 50717-3 0 9997
2 43790 97.5065 40.3410 0014128 83.9310 276.3526 15.06265992329076
ESEO
1 43792U 18099AL 24347.73143462 .00002732 00000-0 21635-3 0 9996
2 43792 97.4839 36.0969 0009830 53.6785 306.5346 15.01351329328970
CSIM
1 43793U 18099AM 24347.45430985 .00050559 00000-0 15924-2 0 9998
2 43793 97.5121 52.2882 0008836 49.3753 310.8256 15.32711963329902
JO-97
1 43803U 18099AX 24347.64697530 .00014001 00000-0 76907-3 0 9993
2 43803 97.4969 42.8768 0009453 53.7558 306.4546 15.14188007329639
Suomi 100
1 43804U 18099AY 24347.42836868 .00012932 00000-0 74009-3 0 9991
2 43804 97.5042 42.3360 0014989 53.3878 306.8729 15.12679875329562
ISAT
1 43879U 18111D 24347.54759672 .00018807 00000-0 88391-3 0 9994
2 43879 97.6070 253.2567 0013572 98.8417 261.4354 15.19563863326415
UWE-4
1 43880U 18111E 24346.97493954 .00017379 00000-0 86723-3 0 9990
2 43880 97.5996 252.1409 0016394 111.1281 249.1706 15.17458018326315
Sparrow
1 43881U 18111F 24347.51315827 .00019724 00000-0 90729-3 0 9991
2 43881 97.6180 255.5219 0009956 129.8127 230.3986 15.20334446326481
Prox-1
1 44339U 19036A 24347.79096190 .00014530 00000-0 21408-2 0 9993
2 44339 23.9967 150.8201 0006862 197.3578 162.6683 14.73658998291644
